Вернуться в каталог

ONEWEB-0583

АктивенСвязьPO
NORAD 54650·PAYLOAD·🇬🇧 United Kingdom

Запущен Dec 8, 2022 с Cape Canaveral Space Force Station

Loading…

Ближайшие Пролёты (ближайшие 24 часа)

TLE

СвежийSource: CelesTrak SupGP

Эпоха: Sep 14, 2026, 14:57 UTC

1 54650C 22166J   26257.62341853 -.00000535  00000+0 -12959-2 0  2570
2 54650  87.9271 226.1926 0002201  85.6379 309.0501 13.21822889    10

Отслеживайте ONEWEB-0583 в реальном времени с AllMySat

Download on the App Store